FW2889 Weather Reports


time (UTC)temp
C
wind
direction
speed
KPH
gust
KPH
rain 1hr
cm
rain 24hr
cm
rain mn
cm
humidity
%
barometer
mb
20260504043041 11 0 3.2 6.4 0.00 0.00 0.00 46 997.5
20260504040041 10 293 1.6 4.8 0.00 0.00 0.00 49 997.6
20260504033040 8 293 3.2 6.4 0.00 0.00 0.00 55 997.5
20260504030041 7 293 6.4 12.9 0.00 0.00 0.00 53 997.4
20260504023040 6 0 4.8 14.5 0.00 0.00 0.00 55 997.3
20260504020040 5 315 4.8 16.1 0.00 0.00 0.00 62 997.4
20260504013042 8 0 8.0 16.1 0.00 0.00 0.00 49 997.4
20260504010042 8 0 4.8 14.5 0.00 0.00 0.00 50 997.4
20260504003042 7 0 3.2 14.5 0.00 0.00 0.00 53 997.6
20260504000142 7 113 3.2 6.4 0.00 0.00 0.00 56 997.8
20260503233042 7 0 3.2 11.3 0.00 0.00 0.00 54 997.7
20260503230042 7 113 1.6 4.8 0.00 0.00 0.00 55 997.7
20260503223042 7 113 1.6 6.4 0.00 0.00 0.00 53 997.8
20260503220042 8 90 1.6 4.8 0.00 0.00 0.00 52 998.0
20260503213042 8 68 1.6 4.8 0.00 0.00 0.00 51 998.1
20260503210141 8 113 3.2 4.8 0.00 0.00 0.00 52 998.3
20260503203040 8 113 3.2 6.4 0.00 0.00 0.00 51 998.3
20260503200042 8 90 3.2 6.4 0.00 0.00 0.00 50 998.3
20260503193040 8 158 3.2 6.4 0.00 0.00 0.00 50 998.5
20260503190040 9 203 1.6 4.8 0.00 0.00 0.00 48 998.6
20260503183041 9 225 1.6 4.8 0.00 0.00 0.00 48 998.6
20260503180100 10 225 1.6 4.8 0.00 0.00 0.00 49 998.7
20260503173042 9 0.0 3.2 0.00 0.00 0.00 48 998.6
20260503053042 11 68 3.2 11.3 0.00 0.00 0.00 59 1001.2